Flag for U.S.A. Weather past 2 weeks in Toccoa, Georgia, U.S.A.

Now
73 °F

Sunny.


Feels Like: 77 °F
Forecast: 58 / 74 °F
Wind: 3 mph from North

Location: Clemson-Oconee County Airport

Current Time: Mar 26, 2015 at 6:38:38 PM

Latest Report: Mar 26, 2015 at 5:54 PM


Visibility: 10 mi

Pressure: 29.77 "Hg

Humidity: 44%

Dew point: 50 °F

Location of ToccoaLocation

Historic Weather in Toccoa — Graph

°F

Toccoa temperature yesterday

Maximum temperature yesterday: 65 °F (at 4:54 PM)
Minimum temperature yesterday: 56 °F (at 4:54 AM)
Average temperature yesterday: 61 °F

Past Weeks' High & Low Weather Summary

 TemperatureHumidityPressure
High87 °F (Mar 16, 4:54 PM)90% (Mar 14, 5:54 AM)30.47 "Hg (Mar 14, 5:54 AM)
Low46 °F (Mar 13, 3:54 PM)5% (Mar 16, 5:54 PM)29.79 "Hg (Mar 26, 4:54 PM)
Average61 °F62%30.12 "Hg
* Reported Mar 11 4:54 PM — Mar 26 4:54 PM, Toccoa, Weather by CustomWeather, © 2015

Note: Actual official high and low records may vary slightly from our data, if they occured in-between our weather recording intervals... More about our weather records

Advertising

Toccoa weather history for previous 24 hours

 ConditionsComfort  
Time TempWeatherWind HumidityBarometerVisibility
4:54 PM
Thu, Mar 26
74 °FSunny.8 mph43%29.79 "Hg10 mi
3:54 PM74 °FScattered clouds.9 mph48%29.81 "Hg10 mi
2:54 PM73 °FScattered clouds.10 mph53%29.83 "Hg10 mi
1:54 PM70 °FPartly sunny.8 mph61%29.87 "Hg10 mi
12:54 PM67 °FMostly cloudy.5 mph73%29.89 "Hg8 mi
11:54 AM67 °FMostly cloudy.6 mph73%29.92 "Hg7 mi
10:54 AM64 °FPartly sunny.6 mph78%29.95 "Hg6 mi
9:54 AM62 °FMostly cloudy.7 mph80%29.98 "Hg4 mi
8:54 AM60 °FFog.7 mph86%29.98 "Hg2 mi
7:54 AM59 °FFog.3 mph87%29.98 "Hg1 mi
6:54 AM60 °FLow clouds.No wind80%29.98 "Hg8 mi
5:54 AM60 °FLow clouds.No wind80%29.98 "Hg8 mi
4:54 AM60 °FOvercast.No wind80%29.99 "Hg8 mi
3:54 AM60 °FOvercast.3 mph80%30.01 "Hg8 mi
2:54 AM60 °FPartly cloudy.No wind80%30.03 "Hg8 mi
1:54 AM61 °FOvercast.6 mph81%30.06 "Hg8 mi
12:54 AM61 °FMostly cloudy.5 mph81%30.08 "Hg8 mi
11:54 PM
Wed, Mar 25
61 °FOvercast.5 mph81%30.09 "Hg8 mi
10:54 PM61 °FOvercast.7 mph81%30.11 "Hg8 mi
9:54 PM62 °FMostly cloudy.7 mph78%30.12 "Hg8 mi
8:54 PM63 °FMostly cloudy.8 mph75%30.12 "Hg9 mi
7:54 PM63 °FOvercast.5 mph78%30.13 "Hg8 mi
6:54 PM65 °FOvercast.5 mph76%30.14 "Hg9 mi
Weather by CustomWeather, © 2015

See weather overviewHow to use our weather pages